Regional Weather Roundup
Issued by NWS Raleigh/Durham, NC

Home | Current Version | Previous Version | Text Only | Print | Product List | Glossary On
Versions: 1 2 3 4 5 6 7 8 9 10 11 12 13 14 15 16 17 18 19 20 21 22 23 24 25 26 27 28 29 30 31 32 33 34 35 36 37 38 39 40 41 42 43 44 45 46 47 48 49 50
000
ASUS42 KRAH 292304
RWRRAH
NORTH CAROLINA WEATHER ROUNDUP
NATIONAL WEATHER SERVICE RALEIGH NC
600 PM EST THU JAN 29 2015

NOTE: "FAIR" INDICATES FEW OR NO CLOUDS BELOW 12,000 FEET WITH NO
SIGNIFICANT WEATHER AND/OR OBSTRUCTIONS TO VISIBILITY.

NCZ001-053-055-056-065-067-300000-
WESTERN NORTH CAROLINA

CITY           SKY/WX    TMP DP  RH WIND       PRES   REMARKS
ASHEVILLE      CLEAR     44  25  47 S12       30.05R
JEFFERSON      CLOUDY    37  23  57 S6        29.99R WCI  33
HICKORY        CLEAR     46  21  37 S7        30.06S
RUTHERFORDTON  NOT AVBL
MOUNT AIRY     CLOUDY    45  24  44 S3        30.07S
$$

NCZ021-022-025-041-071-084-088-300000-
CENTRAL NORTH CAROLINA

CITY           SKY/WX    TMP DP  RH WIND       PRES   REMARKS
CHARLOTTE      MOCLDY    48  22  35 S7        30.10S
GREENSBORO     PTCLDY    43  25  49 S7        30.07S
WINSTON-SALEM  CLEAR     44  21  40 VRB5      30.08F
RALEIGH-DURHAM MOCLDY    42  25  50 S5        30.11F
FORT BRAGG     LGT RAIN  48  22  36 S6        30.13F
FAYETTEVILLE   CLOUDY    47  27  45 S7        30.14F
$$

NCZ011-015-027-028-043-044-047-080-103-300000-
NORTHEASTERN NORTH CAROLINA

CITY           SKY/WX    TMP DP  RH WIND       PRES   REMARKS
ROANOKE RAPIDS CLOUDY    41  23  48 SE6       30.11F
ROCKY MT-WILSO CLOUDY    44  22  41 S8        30.14F
WASHINGTON     PTCLDY    44  21  40 SE5       30.17F
ELIZABETH CITY NOT AVBL
MANTEO         MOCLDY    39  28  65 S10       30.19F WCI  32
CAPE HATTERAS  MOCLDY    37  25  61 W3        30.24R
$$

NCZ078-087-090-091-093-098-101-300000-
SOUTHEASTERN NORTH CAROLINA

CITY           SKY/WX    TMP DP  RH WIND       PRES   REMARKS
LUMBERTON      CLOUDY    50  23  34 S3        30.15F
GOLDSBORO      CLOUDY    46  21  36 CALM      30.13F
KINSTON        CLOUDY    46  19  34 S6        30.17F
KENANSVILLE    PTCLDY    47  17  29 CALM      30.18F
NEW BERN       PTCLDY    45  22  40 S8        30.20F
CHERRY POINT   PTCLDY    42  22  44 S7        30.22F
BEAUFORT       MOCLDY    41  27  57 S5        30.23F
JACKSONVILLE   PTCLDY    42  26  53 S7        30.19F
WILMINGTON     PTCLDY    45  27  49 S8        30.20F
$$




USA.gov is the U.S. government's official web portal to all federal, state and local government web resources and services.